Regional Weather Roundup
Issued by NWS

Home | Current Version | Previous Version | Text Only | Print | Product List | Glossary On
Versions: 1 2 3 4 5 6 7 8 9 10 11 12 13 14 15 16 17 18 19 20 21 22 23 24 25 26 27 28 29 30 31 32 33 34 35 36 37 38 39 40 41 42 43 44 45 46 47 48 49 50
000
ASUS43 KLOT 222304
RWRIL

ILLINOIS REGIONAL WEATHER ROUNDUP
NATIONAL WEATHER SERVICE CHICAGO/ROMEOVILLE IL
600 PM CDT FRI SEP 22 2017

NOTE: "FAIR" INDICATES FEW OR NO CLOUDS BELOW 12,000 FEET WITH NO
SIGNIFICANT WEATHER AND/OR OBSTRUCTIONS TO VISIBILITY.

* THESE STATIONS ARE NOT UNDER NWS QUALITY CONTROL. THEY ALSO MAY NOT
  REPORT WEATHER SUCH AS PRECIPITATION OR FOG.

ILZ001-002-007-009-015-016-024-230000-
NORTHWEST ILLINOIS

CITY           SKY/WX    TMP DP  RH WIND       PRES   REMARKS
MOLINE         SUNNY     90  64  42 S6        29.97S HX  91
STERLING*      CLEAR     91  65  41 CALM      30.00S HX  93
SAVANNA*       CLEAR     89  67  47 S7        29.98S HX  92
$$

ILZ003-004-008-010-011-017-018-230000-
NORTH CENTRAL ILLINOIS

CITY           SKY/WX    TMP DP  RH WIND       PRES   REMARKS
ROCKFORD       CLEAR     88  65  46 S7        30.02R HX  90
FREEPORT*      CLEAR     87  64  45 S7        30.02S HX  88
ROCHELLE*      CLEAR     88  62  41 S5        30.02S HX  88
DE KALB*       CLEAR     88  65  47 S5        30.04S HX  89
PERU*          CLEAR     89  64  42 SW5       30.01S HX  90
$$

ILZ005-006-012>014-019>023-230000-
NORTHEAST ILLINOIS

CITY           SKY/WX    TMP DP  RH WIND       PRES   REMARKS
CHICAGO-OHARE  PTCLDY    92  64  39 SW8       30.01S HX  93
CHICAGO-MIDWAY PTCLDY    93  64  38 S7        30.01F HX  94
AURORA         CLEAR     90  66  45 S3        30.02S HX  92
LANSING*       CLEAR     88  70  54 S3        30.03S HX  93
JOLIET*        CLEAR     91  67  44 SE3       30.01F HX  94
WAUKEGAN       CLEAR     82  69  64 SE6       30.02S HX  85
DUPAGE AIRPORT CLEAR     89  65  44 S5        30.02S HX  91
KANKAKEE*      CLEAR     87  70  56 SE5       30.04R HX  91
WHEELING       CLEAR     92  64  39 SW5       30.02F HX  93
MORRIS*        CLEAR     89  67  47 SE3       30.00S HX  92
ROMEOVILLE*    CLEAR     90  65  44 S6        30.02S HX  91
NORTHERLY ISL    N/A     79  68  69 E3          N/A  HX  81
$$

LMZ740>746-230000-
SOUTHERN LAKE MICHIGAN

STATION/POSITION SKY/WX   TEMP    WIND        PRES    VSBY  WAVE
                          AIR SEA DIR/SP/G                  HT/PER
                          (F)     (DEG/KT/KT) (MB)    (MI)  (FT/S)
SOUTHERN BUOY              73 71  110/  8/  8 1017.1          0
WILMETTE HARBOR            76 72  110/  8/ 10   N/A           1/ 2
HARRISON CRIB              80     100/ 17/ 17   N/A
BURNHAM HARBOR             79                   N/A
CALUMET HARBOR             82      90/  8/ 10 1016.2S
BURNS HARBOR               80      80/ 11/ 13 1017.3S
MICHIGAN CITY              80      50/ 13/ 14   N/A
MICHIGAN CITY 6N           77 75   80/  6/  6   N/A           0
ST. JOSEPH                 77 74   70/  6/  8 1017.1S         0
$$

ILZ025>027-034>036-040-047-049-050-058-095>099-230000-
WEST-CENTRAL ILLINOIS

CITY           SKY/WX    TMP DP  RH WIND       PRES   REMARKS
QUINCY         SUNNY     90  62  39 S9        29.97F HX  90
GALESBURG*     SUNNY     88  64  44 S6        30.00S HX  90
MACOMB*        SUNNY     91  60  36 S5        30.01S HX  90
JACKSONVILLE*  SUNNY     91  60  35 SE6       29.99S HX  90
PITTSFIELD*    SUNNY     91  63  39 S5        30.00S HX  91
$$

ILZ028>032-037-038-041>044-048-051>054-059>061-230000-
CENTRAL ILLINOIS

CITY           SKY/WX    TMP DP  RH WIND       PRES   REMARKS
PONTIAC        CLEAR     92  64  39 CALM      30.02R HX  94
BLOOMINGTON    CLEAR     90  64  42 CALM      30.03R HX  91
DECATUR        CLEAR     90  64  42 S3        30.01R HX  91
PEORIA         CLEAR     91  64  40 W3        29.99S HX  92
LACON*         CLEAR     91  65  41 SW3       29.99S HX  93
LINCOLN*       CLEAR     93  64  38 CALM      29.99S HX  94
SPRINGFIELD    CLEAR     93  63  36 S3        29.99F HX  94
TAYLORVILLE    CLEAR     90  64  42 CALM      30.00S HX  91
$$

ILZ033-039-045-046-055>057-062-063-230000-
EAST-CENTRAL ILLINOIS

CITY           SKY/WX    TMP DP  RH WIND       PRES   REMARKS
CHAMPAIGN      CLOUDY    85  64  49 E9        30.04R HX  86
RANTOUL*       MOCLDY    85  67  55 E12       30.04R HX  87
MATTOON        CLEAR     90  65  43 SE5       30.00S HX  92
$$

ILZ079-100>102-230000-
SOUTHWEST ILLINOIS

CITY           SKY/WX    TMP DP  RH WIND       PRES   REMARKS
CAHOKIA*       SUNNY     94  59  31 SE8       29.97S HX  93
SPARTA*        SUNNY     90  64  42 SE5       30.00S HX  91
$$

ILZ064>066-069>071-074>076-080>082-084>086-088>090-092>094-230000-
SOUTH-CENTRAL ILLINOIS

CITY           SKY/WX    TMP DP  RH WIND       PRES   REMARKS
CARBONDALE     CLEAR     87  70  56 SE5       29.98S HX  92
CAIRO*         CLEAR     85  75  71 CALM      29.99S HX  93
EFFINGHAM*     CLEAR     91  64  40 E6        30.02R HX  92
MARION         PTCLDY    91  63  38 SE10      30.00S HX  92
MT. VERNON       N/A     90  68  48 SE5       30.00S HX  94
CENTRALIA*     MOCLDY    92  66  41 CALM      29.99S HX  95
SALEM*         CLEAR     91  63  39 CALM      30.00S HX  92
METROPOLIS*    CLEAR     89  67  49 E3        30.00R HX  91
$$

ILZ067-068-072-073-078-083-087-091-230000-
SOUTHEAST ILLINOIS

CITY           SKY/WX    TMP DP  RH WIND       PRES   REMARKS
LAWRENCEVILLE  CLEAR     87  71  58 SE8       30.01R HX  93
FLORA*         CLEAR     87  68  53 SE3       30.00S HAZE    HX  90
FAIRFIELD*     CLEAR     90  64  42 E3        29.99S HX  92
HARRISBURG*    PTCLDY    90  67  46 E7        30.00S HX  93
ROBINSON*      PTCLDY    89  69  50 CALM      30.01S HX  93
CARMI*         CLEAR     89  67  48 SE6       29.99F HX  92
$$

ABBREVIATIONS USED IN REMARKS
   TC - TEMPERATURE IN CELSIUS
  WCI - WIND CHILL INDEX
   HX - HEAT INDEX
  VSB - VISIBILITY
$$





USA.gov is the U.S. government's official web portal to all federal, state and local government web resources and services.